Taos, NM

5:20 PM MDT on June 27, 2017 (GMT -0600)
Taos Municipal

Weather History for KSKX - September, 2011

Change the Weather History Date:

Saturday, September 10, 2011

  Actual Average Record
Temperature  
Mean Temperature 55 °F -  
Max Temperature 62 °F 74 °F 84 °F (2004)
Min Temperature 48 °F 42 °F 30 °F (2001)
Degree Days  
Heating Degree Days 10    
Growing Degree Days 5 (Base 50)    
Moisture  
Dew Point 45 °F    
Average Humidity 77    
Maximum Humidity 93    
Minimum Humidity 48    
Precipitation  
Precipitation 0.05 in - - ()
Sea Level Pressure  
Sea Level Pressure 30.39 in    
Wind  
Wind Speed 3 mph (NW)    
Max Wind Speed 13 mph    
Max Gust Speed -    
Visibility 10 miles    
Events      
Averages and records for this station are not official NWS values.
T = Trace of Precipitation, MM = Missing Value Source: NWS Daily Summary

Daily Weather History Graph

Daily Weather History Graph

Search for Another Location

Airport or City:

Trip Planner

Search our weather history database for the weather conditions in past years. The results will help you decide how hot, cold, wet, or windy it might be!

Date:

Astronomy

Sep. 10, 2011 Rise Set
Actual Time 6:40 AM MDT 7:17 PM MDT
Civil Twilight 6:14 AM MDT 7:43 PM MDT
Nautical Twilight 5:44 AM MDT 8:14 PM MDT
Astronomical Twilight 5:12 AM MDT 8:45 PM MDT
Moon 6:13 PM MDT (9/10) 5:05 AM MDT (9/10)
Length of Visible Light 13h 28m
Length of Day
12h 36m
Waxing Gibbous, 97% of the Moon is Illuminated
Sep 10
Waxing Gibbous
Sep 12
Full
Sep 20
Last Quarter
Sep 27
New
Oct 3
First Quarter

Hourly Weather History & Observations

Time (MDT) Temp. Windchill Dew Point Humidity Pressure Visibility Wind Dir Wind Speed Gust Speed Precip Events Conditions
12:15 AM 50.0 °F - 46.4 °F 87% 30.37 in 10.0 mi West 3.5 mph - N/A   Mostly Cloudy
12:35 AM 48.2 °F - 46.4 °F 93% 30.37 in 10.0 mi WNW 3.5 mph - N/A   Partly Cloudy
12:55 AM 48.2 °F - 44.6 °F 87% 30.38 in 10.0 mi Calm Calm - N/A   Clear
1:15 AM 48.2 °F - 44.6 °F 87% 30.39 in 10.0 mi NNE 3.5 mph - N/A   Clear
1:35 AM 48.2 °F - 44.6 °F 87% 30.39 in 10.0 mi Calm Calm - N/A   Clear
1:55 AM 48.2 °F - 46.4 °F 93% 30.39 in 10.0 mi Calm Calm - N/A   Scattered Clouds
2:15 AM 48.2 °F - 44.6 °F 87% 30.38 in 10.0 mi Calm Calm - N/A   Mostly Cloudy
2:35 AM 50.0 °F - 46.4 °F 87% 30.38 in 10.0 mi Calm Calm - N/A   Overcast
2:55 AM 50.0 °F - 44.6 °F 82% 30.37 in 10.0 mi Calm Calm - N/A   Mostly Cloudy
3:15 AM 48.2 °F - 44.6 °F 87% 30.37 in 10.0 mi North 3.5 mph - N/A   Mostly Cloudy
3:35 AM 48.2 °F - 46.4 °F 93% 30.37 in 10.0 mi Calm Calm - N/A   Overcast
3:55 AM 48.2 °F - 44.6 °F 87% 30.37 in 10.0 mi WNW 3.5 mph - N/A   Overcast
4:15 AM 48.2 °F - 46.4 °F 93% 30.37 in 10.0 mi West 3.5 mph - N/A   Overcast
4:35 AM 48.2 °F - 46.4 °F 93% 30.37 in 10.0 mi Calm Calm - N/A   Overcast
4:55 AM 50.0 °F - 46.4 °F 87% 30.37 in 10.0 mi Calm Calm - N/A   Overcast
5:15 AM 48.2 °F - 44.6 °F 87% 30.38 in 10.0 mi Calm Calm - N/A   Overcast
5:35 AM 48.2 °F - 44.6 °F 87% 30.38 in 10.0 mi Calm Calm - N/A   Overcast
5:55 AM 48.2 °F - 44.6 °F 87% 30.39 in 10.0 mi Calm Calm - N/A   Overcast
6:15 AM 48.2 °F - 44.6 °F 87% 30.39 in 10.0 mi Calm Calm - N/A   Overcast
6:35 AM 48.2 °F - 46.4 °F 93% 30.40 in 7.0 mi SW 4.6 mph - 0.01 in   Mostly Cloudy
6:55 AM 48.2 °F - 44.6 °F 87% 30.40 in 10.0 mi SSW 9.2 mph - 0.02 in   Overcast
7:15 AM 48.2 °F - 42.8 °F 82% 30.40 in 10.0 mi SSE 6.9 mph - 0.01 in   Overcast
7:35 AM 48.2 °F - 42.8 °F 82% 30.40 in 10.0 mi SSE 9.2 mph - 0.02 in   Overcast
7:55 AM 48.2 °F - 42.8 °F 82% 30.40 in 10.0 mi South 12.7 mph - 0.02 in   Overcast
8:15 AM 48.2 °F - 42.8 °F 82% 30.41 in 10.0 mi ESE 6.9 mph - N/A   Overcast
8:35 AM 48.2 °F - 42.8 °F 82% 30.41 in 10.0 mi ESE 3.5 mph - N/A   Overcast
8:55 AM 48.2 °F - 44.6 °F 87% 30.41 in 10.0 mi NE 4.6 mph - N/A   Overcast
9:15 AM 50.0 °F - 44.6 °F 82% 30.41 in 10.0 mi ENE 4.6 mph - N/A   Overcast
9:35 AM 51.8 °F - 44.6 °F 76% 30.41 in 10.0 mi Calm Calm - 0.01 in   Overcast
9:55 AM 51.8 °F - 44.6 °F 76% 30.42 in 10.0 mi Calm Calm - 0.01 in   Overcast
10:15 AM 51.8 °F - 46.4 °F 82% 30.43 in 10.0 mi Calm Calm - N/A   Overcast
10:35 AM 51.8 °F - 46.4 °F 82% 30.43 in 10.0 mi North 6.9 mph - N/A   Overcast
10:55 AM 51.8 °F - 46.4 °F 82% 30.44 in 10.0 mi North 4.6 mph - N/A   Overcast
11:15 AM 51.8 °F - 46.4 °F 82% 30.44 in 10.0 mi North 8.1 mph - N/A   Overcast
11:35 AM 51.8 °F - 46.4 °F 82% 30.43 in 10.0 mi North 6.9 mph - N/A   Overcast
12:15 PM 51.8 °F - 44.6 °F 76% 30.43 in 10.0 mi North 6.9 mph - N/A   Overcast
12:35 PM 53.6 °F - 44.6 °F 72% 30.43 in 10.0 mi NNW 5.8 mph - N/A   Overcast
12:55 PM 53.6 °F - 44.6 °F 72% 30.42 in 10.0 mi WNW 6.9 mph - N/A   Overcast
1:15 PM 53.6 °F - 44.6 °F 72% 30.42 in 10.0 mi WNW 8.1 mph - N/A   Overcast
1:35 PM 55.4 °F - 44.6 °F 67% 30.42 in 10.0 mi NW 8.1 mph - N/A   Overcast
1:55 PM 55.4 °F - 44.6 °F 67% 30.42 in 10.0 mi NNW 4.6 mph - N/A   Overcast
2:15 PM 55.4 °F - 44.6 °F 67% 30.41 in 10.0 mi NW 4.6 mph - N/A   Overcast
2:35 PM 55.4 °F - 44.6 °F 67% 30.41 in 10.0 mi North 4.6 mph - N/A   Overcast
2:55 PM 59.0 °F - 44.6 °F 59% 30.40 in 10.0 mi NNW 5.8 mph - N/A   Overcast
3:15 PM 59.0 °F - 44.6 °F 59% 30.39 in 10.0 mi WNW 4.6 mph - N/A   Overcast
3:35 PM 60.8 °F - 42.8 °F 52% 30.39 in 10.0 mi Calm Calm - N/A   Partly Cloudy
3:55 PM 60.8 °F - 44.6 °F 55% 30.38 in 10.0 mi WNW 3.5 mph - N/A   Clear
4:15 PM 62.6 °F - 42.8 °F 48% 30.37 in 10.0 mi NNW 5.8 mph - N/A   Clear
4:35 PM 62.6 °F - 42.8 °F 48% 30.37 in 10.0 mi WSW 4.6 mph - N/A   Clear
4:55 PM - - - N/A% 30.37 in 10.0 mi NW 6.9 mph - N/A   Clear
5:15 PM - - - N/A% 30.36 in 10.0 mi West 3.5 mph - N/A   Clear
5:35 PM - - - N/A% 30.36 in 10.0 mi SSW 5.8 mph - N/A   Clear
5:55 PM 60.8 °F - 44.6 °F 55% 30.36 in 10.0 mi WSW 6.9 mph - N/A   Clear
6:35 PM 60.8 °F - 46.4 °F 59% 30.37 in 10.0 mi SW 5.8 mph - N/A   Clear
7:15 PM 57.2 °F - 46.4 °F 67% 30.37 in 10.0 mi Calm Calm - N/A   Partly Cloudy
7:35 PM 55.4 °F - 44.6 °F 67% 30.38 in 10.0 mi West 4.6 mph - N/A   Clear
7:55 PM 55.4 °F - 44.6 °F 67% 30.38 in 10.0 mi West 3.5 mph - N/A   Clear
8:15 PM 53.6 °F - 44.6 °F 72% 30.39 in 10.0 mi Calm Calm - N/A   Clear
8:35 PM 53.6 °F - 44.6 °F 72% 30.40 in 10.0 mi Calm Calm - N/A   Clear
8:55 PM 53.6 °F - 44.6 °F 72% 30.39 in 10.0 mi SE 8.1 mph - N/A   Clear
9:15 PM 51.8 °F - 42.8 °F 71% 30.40 in 10.0 mi East 3.5 mph - N/A   Clear
9:35 PM 50.0 °F - 44.6 °F 82% 30.41 in 10.0 mi ESE 4.6 mph - N/A   Clear
9:55 PM 50.0 °F - 44.6 °F 82% 30.41 in 10.0 mi ESE 5.8 mph - N/A   Clear
10:15 PM 48.2 °F - 42.8 °F 82% 30.41 in 10.0 mi East 4.6 mph - N/A   Clear
10:35 PM 48.2 °F - 42.8 °F 82% 30.42 in 10.0 mi East 6.9 mph - N/A   Clear
10:55 PM 48.2 °F - 42.8 °F 82% 30.42 in 10.0 mi ENE 4.6 mph - N/A   Clear
11:15 PM 48.2 °F - 42.8 °F 82% 30.43 in 10.0 mi ENE 6.9 mph - N/A   Clear
11:35 PM 46.4 °F 42.4 °F 42.8 °F 87% 30.43 in 10.0 mi East 8.1 mph - N/A   Clear
11:55 PM 46.4 °F 43.5 °F 41.0 °F 81% 30.43 in 10.0 mi East 5.8 mph - N/A   Clear